Regional Weather Roundup
Issued by NWS

Home | Current Version | Previous Version | Graphics & Text | Print | Product List | Glossary On
Versions: 1 2 3 4 5 6 7 8 9 10 11 12 13 14 15 16 17 18 19 20 21 22 23 24 25 26 27 28 29 30 31 32 33 34 35 36 37 38 39 40 41 42 43 44 45 46 47 48 49 50
000
ASUS43 KLOT 060921
RWRIL

ILLINOIS REGIONAL WEATHER ROUNDUP
NATIONAL WEATHER SERVICE CHICAGO/ROMEOVILLE IL
400 AM CDT WED MAY 06 2015

NOTE: "FAIR" INDICATES FEW OR NO CLOUDS BELOW 12,000 FEET WITH NO
SIGNIFICANT WEATHER AND/OR OBSTRUCTIONS TO VISIBILITY.

* THESE STATIONS ARE NOT UNDER NWS QUALITY CONTROL. THEY ALSO MAY NOT
  REPORT WEATHER SUCH AS PRECIPITATION OR FOG.

ILZ001-002-007-009-015-016-024-061000-
NORTHWEST ILLINOIS

CITY           SKY/WX    TMP DP  RH WIND       PRES   REMARKS
MOLINE         CLOUDY    56  53  90 E12       30.11F FOG
STERLING*      CLOUDY    54  52  94 E12       30.14F VSB 1/2
SAVANNA*       CLOUDY    54  52  95 E7        30.14S FOG
$$

ILZ003-004-008-010-011-017-018-061000-
NORTH CENTRAL ILLINOIS

CITY           SKY/WX    TMP DP  RH WIND       PRES   REMARKS
ROCKFORD       FOG       51  49  92 E6        30.18F VSB 1/2
FREEPORT*      FOG       50  50  99 E10       30.17F VSB 1/4
ROCHELLE*      FOG       51  51 100 E9        30.17S VSB 3/4
DE KALB*       FOG       49  48  99 E9        30.17F VSB 1/4
PERU*          FOG       56  55  99 E7        30.15S VSB 1/4
$$

ILZ005-006-012>014-019>023-061000-
NORTHEAST ILLINOIS

CITY           SKY/WX    TMP DP  RH WIND       PRES   REMARKS
CHICAGO-OHARE  FOG       47  46  97 NE5       30.18S VSB 1/4
CHICAGO-MIDWAY FOG       51  49  92 NE5       30.18S VSB 1/4
AURORA         FOG       51  49  92 E8        30.17F VSB 1/2
LANSING*       DRZL/FOG  49  47  93 N5        30.18S VSB 1/2
JOLIET*        FOG       54  54  99 NE5       30.17S VSB 3/4
WAUKEGAN       CLOUDY    45  45 100 E5        30.19F FOG
DUPAGE AIRPORT FOG       49  48  97 NE7       30.17F VSB 1/4
KANKAKEE*      FOG       61  61  99 E6        30.16S VSB 1
WHEELING       CLOUDY    46  44  93 NE3       30.20F FOG
MORRIS*        FOG       53  53  98 NE3       30.13F VSB 1/2
ROMEOVILLE*    DRZL/FOG  51  51 100 E6        30.17S VSB 1/4
NORTHERLY ISL    N/A     46  45  96 N3          N/A
$$

LMZ740>746-061000-
SOUTHERN LAKE MICHIGAN

STATION/POSITION SKY/WX   TEMP    WIND        PRES    VSBY  WAVE
                          AIR SEA DIR/SP/G                  HT/PER
                          (F)     (DEG/KT/KT) (MB)    (MI)  (FT/S)
HARRISON CRIB              45      10/  5/  5   N/A
BURNHAM HARBOR             46     360/  5/  7   N/A
CALUMET HARBOR             46     340/  5/  6   N/A
BURNS HARBOR               54      80/  2/  3 1022.4S
MICHIGAN CITY              57      60/  4/  5   N/A
MICHIGAN CITY 6N           51 51   50/  4/  6   N/A           1
ST. JOSEPH                 54 50  110/  4/  6   N/A           1
$$

ILZ025>027-034>036-040-047-049-050-058-095>099-061000-
WEST-CENTRAL ILLINOIS

CITY           SKY/WX    TMP DP  RH WIND       PRES   REMARKS
QUINCY         CLEAR     66  56  70 S8        30.08S
GALESBURG*     PTCLDY    60  58  96 E7        30.10F FOG
MACOMB*        PTCLDY    62  62 100 E6        30.11S FOG
JACKSONVILLE*  CLEAR     69  57  67 S8        30.10S
PITTSFIELD*    PTCLDY    66  57  74 SE3       30.10F
$$

ILZ028>032-037-038-041>044-048-051>054-059>061-061000-
CENTRAL ILLINOIS

CITY           SKY/WX    TMP DP  RH WIND       PRES   REMARKS
PONTIAC        RAIN      62  62 100 E8        30.15S VSB 1/4
BLOOMINGTON    PTCLDY    59  59 100 SE5       30.15S FOG
DECATUR        PTCLDY    59  53  80 E6        30.13F
PEORIA         PTCLDY    61  58  90 NE6       30.11F FOG
LACON*         FOG       57  56  95 E6        30.13S VSB 1
LINCOLN*       MOCLDY    61  58  92 E3        30.10F FOG
SPRINGFIELD    PTCLDY    67  56  67 S9        30.11S
TAYLORVILLE    PTCLDY    61  55  82 CALM      30.12F
$$

ILZ033-039-045-046-055>057-062-063-061000-
EAST-CENTRAL ILLINOIS

CITY           SKY/WX    TMP DP  RH WIND       PRES   REMARKS
CHAMPAIGN      CLOUDY    63  57  81 E3        30.15S
DANVILLE*      CLEAR     60  56  87 CALM      30.13S
RANTOUL*       CLOUDY    62  60  95 CALM      30.14F FOG
MATTOON        MOCLDY    63  55  75 S3        30.14S
PARIS*         CLEAR     62  55  75 CALM      30.16S
$$

ILZ079-100>102-061000-
SOUTHWEST ILLINOIS

CITY           SKY/WX    TMP DP  RH WIND       PRES   REMARKS
ALTON          CLEAR     59  59 100 CALM      30.11F
BELLEVILLE     PTCLDY    60  60  99 CALM      30.11S
CAHOKIA*       CLEAR     64  57  78 CALM      30.11S
SPARTA*        CLEAR     61  58  87 SE3       30.13S
$$

ILZ064>066-069>071-074>076-080>082-084>086-088>090-092>094-061000-
SOUTH-CENTRAL ILLINOIS

CITY           SKY/WX    TMP DP  RH WIND       PRES   REMARKS
CARBONDALE     CLEAR     58  55  90 SE3       30.13S
CAIRO*         CLEAR     57  56  96 CALM      30.14S
EFFINGHAM*     CLOUDY    59  55  85 CALM      30.16S
MARION         CLEAR     63  55  77 CALM      30.15S
MT. VERNON     CLEAR    N/A N/A N/A CALM      30.14S
CENTRALIA*     CLEAR     63  55  74 S8        30.13S
SALEM*         CLEAR     65  56  73 S3        30.14S
METROPOLIS*    CLEAR     57  57 100 CALM      30.14S
$$

ILZ067-068-072-073-078-083-087-091-061000-
SOUTHEAST ILLINOIS

CITY           SKY/WX    TMP DP  RH WIND       PRES   REMARKS
LAWRENCEVILLE  CLEAR     60  54  80 CALM      30.16S
FLORA*         CLEAR     57  53  86 CALM      30.15S
FAIRFIELD*     CLEAR     60  56  86 CALM      30.14S
HARRISBURG*    CLEAR     57  55  92 CALM      30.16S
ROBINSON*      CLEAR     55  53  90 CALM      30.16S
CARMI*         CLEAR     57  51  80 S3        30.15S
$$

ABBREVIATIONS USED IN REMARKS
   TC - TEMPERATURE IN CELSIUS
  WCI - WIND CHILL INDEX
   HX - HEAT INDEX
  VSB - VISIBILITY
$$




USA.gov is the U.S. government's official web portal to all federal, state and local government web resources and services.